Time,TemperatureF,DewpointF,PressureIn,WindDirection,WindDirectionDegrees,WindSpeedMPH,WindSpeedGustMPH,Humidity,HourlyPrecipIn,Conditions,Clouds,dailyrainin,SoftwareType,DateUTC
2013-09-02 00:00:00,55.0,-99.9,-100.00,NW,322,109.0,-999.0,-999,-99.99,,,0.00,,2013-09-02 06:00:00,
2013-09-02 00:52:00,55.0,-99.9,-100.00,NW,322,109.0,-999.0,-999,-99.99,,,0.00,,2013-09-02 06:52:00,
2013-09-02 02:00:00,57.0,-99.9,-100.00,West,281,100.0,-999.0,-999,-99.99,,,0.00,,2013-09-02 08:00:00,
2013-09-02 02:52:00,57.0,-99.9,-100.00,West,281,100.0,-999.0,-999,-99.99,,,0.00,,2013-09-02 08:52:00,
2013-09-02 03:00:00,60.0,-99.9,-100.00,WSW,257,91.0,-999.0,-999,-99.99,,,0.00,,2013-09-02 09:00:00,
2013-09-02 03:54:00,60.0,-99.9,-100.00,WSW,257,91.0,-999.0,-999,-99.99,,,0.00,,2013-09-02 09:54:00,
2013-09-02 04:00:00,59.0,-99.9,-100.00,SW,216,80.0,-999.0,-999,-99.99,,,0.00,,2013-09-02 10:00:00,
2013-09-02 04:53:00,59.0,-99.9,-100.00,SW,216,80.0,-999.0,-999,-99.99,,,0.00,,2013-09-02 10:53:00,
2013-09-02 05:00:00,59.0,-99.9,-100.00,SSW,194,71.0,-999.0,-999,-99.99,,,0.00,,2013-09-02 11:00:00,
2013-09-02 05:52:00,59.0,-99.9,-100.00,SSW,194,71.0,-999.0,-999,-99.99,,,0.00,,2013-09-02 11:52:00,
2013-09-02 06:00:00,54.0,-99.9,-100.00,SW,232,86.0,-999.0,-999,-99.99,,,0.00,,2013-09-02 12:00:00,
2013-09-02 06:52:00,54.0,-99.9,-100.00,SW,232,86.0,-999.0,-999,-99.99,,,0.00,,2013-09-02 12:52:00,
2013-09-02 07:00:00,57.0,-99.9,-100.00,WSW,240,86.0,-999.0,-999,-99.99,,,0.00,,2013-09-02 13:00:00,
2013-09-02 07:53:00,57.0,-99.9,-100.00,WSW,240,86.0,-999.0,-999,-99.99,,,0.00,,2013-09-02 13:53:00,
2013-09-02 08:00:00,68.0,-99.9,-100.00,South,173,78.0,-999.0,-999,-99.99,,,0.00,,2013-09-02 14:00:00,
2013-09-02 08:52:00,68.0,-99.9,-100.00,South,173,78.0,-999.0,-999,-99.99,,,0.00,,2013-09-02 14:52:00,
2013-09-02 09:00:00,69.0,-99.9,-100.00,SE,145,53.0,-999.0,-999,-99.99,,,-99.99,,2013-09-02 15:00:00,
2013-09-02 09:55:00,69.0,-99.9,-100.00,SE,145,53.0,-999.0,-999,-99.99,,,-99.99,,2013-09-02 15:55:00,
2013-09-02 10:00:00,73.0,-99.9,-100.00,SE,135,51.0,-999.0,-999,-99.99,,,0.00,,2013-09-02 16:00:00,
2013-09-02 10:53:00,73.0,-99.9,-100.00,SE,135,51.0,-999.0,-999,-99.99,,,0.00,,2013-09-02 16:53:00,
2013-09-02 11:00:00,75.0,-99.9,-100.00,ESE,122,45.0,-999.0,-999,-99.99,,,0.00,,2013-09-02 17:00:00,
2013-09-02 11:52:00,75.0,-99.9,-100.00,ESE,122,45.0,-999.0,-999,-99.99,,,0.00,,2013-09-02 17:52:00,
2013-09-02 12:00:00,79.0,-99.9,-100.00,ESE,114,43.0,-999.0,-999,-99.99,,,-99.99,,2013-09-02 18:00:00,
2013-09-02 12:52:00,79.0,-99.9,-100.00,ESE,114,43.0,-999.0,-999,-99.99,,,-99.99,,2013-09-02 18:52:00,
2013-09-02 13:00:00,77.0,-99.9,-100.00,ESE,106,42.0,-999.0,-999,-99.99,,,0.00,,2013-09-02 19:00:00,
2013-09-02 13:52:00,77.0,-99.9,-100.00,ESE,106,42.0,-999.0,-999,-99.99,,,0.00,,2013-09-02 19:52:00,
2013-09-02 14:00:00,75.0,-99.9,-100.00,ESE,106,44.0,-999.0,-999,-99.99,,,0.00,,2013-09-02 20:00:00,
2013-09-02 14:52:00,75.0,-99.9,-100.00,ESE,106,44.0,-999.0,-999,-99.99,,,0.00,,2013-09-02 20:52:00,
2013-09-02 15:00:00,76.0,-99.9,-100.00,SE,146,55.0,-999.0,-999,-99.99,,,0.00,,2013-09-02 21:00:00,
2013-09-02 15:55:00,76.0,-99.9,-100.00,SE,146,55.0,-999.0,-999,-99.99,,,0.00,,2013-09-02 21:55:00,
2013-09-02 16:00:00,76.0,-99.9,-100.00,SE,125,45.0,-999.0,-999,-99.99,,,0.00,,2013-09-02 22:00:00,
2013-09-02 16:54:00,76.0,-99.9,-100.00,SE,125,45.0,-999.0,-999,-99.99,,,0.00,,2013-09-02 22:54:00,
2013-09-02 17:00:00,72.0,-99.9,-100.00,SE,130,51.0,-999.0,-999,-99.99,,,0.00,,2013-09-02 23:00:00,
2013-09-02 17:53:00,72.0,-99.9,-100.00,SE,130,51.0,-999.0,-999,-99.99,,,0.00,,2013-09-02 23:53:00,
2013-09-02 20:00:00,66.0,-99.9,-100.00,South,169,60.0,-999.0,-999,-99.99,,,0.00,,2013-09-03 02:00:00,
2013-09-02 20:52:00,66.0,-99.9,-100.00,South,169,60.0,-999.0,-999,-99.99,,,0.00,,2013-09-03 02:52:00,
2013-09-02 21:00:00,65.0,-99.9,-100.00,South,182,63.0,-999.0,-999,-99.99,,,0.00,,2013-09-03 03:00:00,
2013-09-02 21:55:00,65.0,-99.9,-100.00,South,182,63.0,-999.0,-999,-99.99,,,0.00,,2013-09-03 03:55:00,
2013-09-02 23:00:00,56.0,-99.9,-100.00,NNW,334,112.0,-999.0,-999,-99.99,,,0.00,,2013-09-03 05:00:00,
2013-09-02 23:52:00,56.0,-99.9,-100.00,NNW,334,112.0,-999.0,-999,-99.99,,,0.00,,2013-09-03 05:52:00,